GW2068 Weather Reports


time (UTC)temp
C
wind
direction
speed
KPH
gust
KPH
rain 1hr
cm
rain 24hr
cm
rain mn
cm
humidity
%
barometer
mb
20260504182234 25 183 6.4 12.9 0.00 0.00 0.00 34 1018.8
20260504182136 25 202 3.2 9.7 0.00 0.00 0.00 34 1018.7
20260504181136 24 266 1.6 6.4 0.00 0.00 0.00 35 1018.8
20260504180134 23 237 4.8 9.7 0.00 0.00 0.00 35 1018.7
20260504175136 23 169 6.4 11.3 0.00 0.00 0.00 34 1018.9
20260504174136 23 144 4.8 9.7 0.00 0.00 0.00 35 1019.1
20260504173235 23 200 11.3 17.7 0.00 0.00 0.00 35 1018.9
20260504173134 23 230 3.2 11.3 0.00 0.00 0.00 36 1019.0
20260504172134 23 202 4.8 8.0 0.00 0.00 0.00 35 1019.1
20260504171233 23 255 1.6 6.4 0.00 0.00 0.00 35 1019.2
20260504170251 22 199 6.4 9.7 0.00 0.00 0.00 36 1019.4
20260504150750 20 306 1.6 4.8 0.00 0.00 0.00 43 1021.1
20260504120235 9 180 0.0 0.0 0.00 0.00 0.00 75 1020.6
20260504110234 4 180 0.0 0.0 0.00 0.00 0.00 88 1020.0
20260504100335 5 180 0.0 0.0 0.00 0.00 0.00 87 1020.0
20260504081134 6 180 0.0 0.0 0.00 0.00 0.00 81 1019.9
20260504080134 6 180 0.0 0.0 0.00 0.00 0.00 79 1019.9
20260504070233 7 180 0.0 0.0 0.00 0.00 0.00 75 1020.1
20260504050433 10 180 0.0 0.0 0.00 0.00 0.00 59 1020.6
20260504045532 10 180 0.0 0.0 0.00 0.00 0.00 58 1020.3
20260504044535 10 180 0.0 0.0 0.00 0.00 0.00 59 1020.3
20260504042533 11 180 0.0 0.0 0.00 0.00 0.00 58 1020.2
20260504041536 11 180 0.0 0.0 0.00 0.00 0.00 56 1020.2
20260504040632 11 202 0.0 0.0 0.00 0.00 0.00 55 1020.3
20260504035723 11 202 0.0 0.0 0.00 0.00 0.00 55 1020.2
20260504034721 11 202 0.0 0.0 0.00 0.00 0.00 55 1020.3
20260504032821 12 202 0.0 0.0 0.00 0.00 0.00 52 1020.5
20260504031836 12 202 0.0 1.6 0.00 0.00 0.00 52 1020.5
20260504025920 12 202 0.0 0.0 0.00 0.00 0.00 50 1020.6
20260504024939 12 202 0.0 3.2 0.00 0.00 0.00 49 1020.6
20260504023922 12 180 0.0 1.6 0.00 0.00 0.00 49 1020.3
20260504022020 13 180 0.0 0.0 0.00 0.00 0.00 47 1020.3
20260504021023 13 180 0.0 1.6 0.00 0.00 0.00 46 1020.1
20260504020037 13 180 3.2 4.8 0.00 0.00 0.00 46 1019.9
20260504015119 14 185 1.6 3.2 0.00 0.00 0.00 46 1019.9
20260504014120 14 180 0.0 1.6 0.00 0.00 0.00 45 1019.9
20260504014019 14 180 0.0 3.2 0.00 0.00 0.00 46 1019.9
20260504012021 14 180 1.6 3.2 0.00 0.00 0.00 46 1019.6
20260504011020 14 135 0.0 0.0 0.00 0.00 0.00 45 1019.6
20260504010021 14 135 1.6 3.2 0.00 0.00 0.00 45 1019.5
20260504005021 15 135 0.0 0.0 0.00 0.00 0.00 43 1019.5
20260504004020 15 135 0.0 0.0 0.00 0.00 0.00 41 1019.4
20260504003038 16 135 1.6 3.2 0.00 0.00 0.00 39 1019.3
20260504002021 16 135 1.6 3.2 0.00 0.00 0.00 38 1019.2
20260504001119 17 135 0.0 1.6 0.00 0.00 0.00 37 1019.2
20260503234220 18 193 6.4 8.0 0.00 0.00 0.00 32 1019.1
20260503233221 18 190 3.2 6.4 0.00 0.00 0.00 31 1019.0
20260503232219 19 206 4.8 8.0 0.00 0.00 0.00 30 1019.1
20260503231318 20 201 6.4 11.3 0.00 0.00 0.00 30 1019.0
20260503230321 21 225 1.6 4.8 0.00 0.00 0.00 28 1019.1
20260503230221 21 225 1.6 4.8 0.00 0.00 0.00 28 1019.1
20260503225222 20 182 1.6 3.2 0.00 0.00 0.00 27 1019.0
20260503224237 20 200 8.0 11.3 0.00 0.00 0.00 27 1019.1
20260503222320 20 202 1.6 4.8 0.00 0.00 0.00 27 1019.3
20260503220319 20 198 4.8 8.0 0.00 0.00 0.00 27 1019.4
20260503213419 21 303 4.8 6.4 0.00 0.00 0.00 27 1019.8
20260503213321 21 315 3.2 6.4 0.00 0.00 0.00 27 1019.9
20260503212335 20 278 4.8 6.4 0.00 0.00 0.00 28 1019.9
20260503211320 21 189 6.4 11.3 0.00 0.00 0.00 28 1019.9
20260503210418 21 312 6.4 8.0 0.00 0.00 0.00 28 1019.9
20260503210336 21 229 4.8 8.0 0.00 0.00 0.00 28 1019.9
20260503205419 21 216 3.2 8.0 0.00 0.00 0.00 29 1020.0
20260503204437 21 197 8.0 11.3 0.00 0.00 0.00 29 1020.3
20260503202520 20 298 4.8 8.0 0.00 0.00 0.00 29 1020.3
20260503201519 20 193 6.4 8.0 0.00 0.00 0.00 29 1020.6
20260503200520 20 188 9.7 12.9 0.00 0.00 0.00 27 1020.7
20260503195536 21 256 1.6 6.4 0.00 0.00 0.00 28 1020.9
20260503194620 20 206 4.8 8.0 0.00 0.00 0.00 29 1020.9
20260503191719 18 282 4.8 12.9 0.00 0.00 0.00 29 1021.5
20260503190721 18 342 1.6 4.8 0.00 0.00 0.00 29 1021.5
20260503185819 18 87 8.0 11.3 0.00 0.00 0.00 30 1021.7
20260503184821 18 269 3.2 6.4 0.00 0.00 0.00 30 1021.8
20260503183918 18 353 1.6 3.2 0.00 0.00 0.00 30 1022.0
20260503182919 18 352 4.8 8.0 0.00 0.00 0.00 30 1022.1